Meteo pe oră la Dzierzgonka

Astăzi, 3 Martie, Miercuri

Timp Temperatura Precipitaţii Vânt Presiune Umiditate
00:00 +1°C° 0 mm 0 m/s 774 mmHg 94%
01:00 +2°C° 0 mm 1 m/s 774 mmHg 94%
02:00 +2°C° 0 mm 1 m/s 774 mmHg 94%
03:00 +2°C° 0 mm 1 m/s 773 mmHg 93%
04:00 +2°C° 0 mm 1 m/s 773 mmHg 93%
05:00 +1°C° 0 mm 2 m/s 773 mmHg 94%
06:00 +1°C° 0 mm 2 m/s 772 mmHg 94%
07:00 +1°C° 0 mm 2 m/s 772 mmHg 94%
08:00 +2°C° 0 mm 2 m/s 772 mmHg 88%
09:00 +3°C° 0 mm 3 m/s 771 mmHg 82%
10:00 +4°C° 0 mm 3 m/s 771 mmHg 76%
11:00 +5°C° 0 mm 3 m/s 770 mmHg 71%
12:00 +7°C° 0 mm 3 m/s 770 mmHg 66%
13:00 +9°C° 0 mm 3 m/s 769 mmHg 60%
14:00 +9°C° 0 mm 3 m/s 768 mmHg 61%
15:00 +9°C° 0 mm 3 m/s 768 mmHg 62%
16:00 +8°C° 0 mm 2 m/s 767 mmHg 63%
17:00 +7°C° 0 mm 3 m/s 766 mmHg 69%
18:00 +5°C° 0 mm 3 m/s 766 mmHg 74%
19:00 +4°C° 0 mm 3 m/s 765 mmHg 79%
20:00 +3°C° 0 mm 3 m/s 764 mmHg 82%
21:00 +3°C° 0 mm 3 m/s 763 mmHg 85%
22:00 +3°C° 0 mm 3 m/s 763 mmHg 88%
23:00 +3°C° 0 mm 3 m/s 762 mmHg 89%

Mâine, 4 Martie, Joi

Timp Temperatura Precipitaţii Vânt Presiune Umiditate
00:00 +1°C° 0 mm 4 m/s 762 mmHg 90%
01:00 +1°C° 0 mm 4 m/s 761 mmHg 91%
02:00 +1°C° 0 mm 4 m/s 760 mmHg 92%
03:00 +1°C° 0 mm 4 m/s 759 mmHg 92%
04:00 +1°C° 0 mm 4 m/s 758 mmHg 93%
05:00 +1°C° 0 mm 4 m/s 758 mmHg 93%
06:00 +1°C° 0 mm 4 m/s 758 mmHg 93%
07:00 +1°C° 0 mm 4 m/s 758 mmHg 93%
08:00 +1°C° 0 mm 4 m/s 758 mmHg 90%
09:00 +2°C° 0 mm 5 m/s 758 mmHg 86%
10:00 +2°C° 0 mm 5 m/s 758 mmHg 83%
11:00 +2°C° 0 mm 5 m/s 758 mmHg 85%
12:00 +2°C° 0 mm 5 m/s 759 mmHg 86%
13:00 +1°C° 0 mm 5 m/s 759 mmHg 88%
14:00 +1°C° 0.2 mm 5 m/s 759 mmHg 89%
15:00 0°C° 0.2 mm 5 m/s 759 mmHg 90%
16:00 -2°C° 0.2 mm 6 m/s 759 mmHg 91%
17:00 -1°C° 0 mm 5 m/s 760 mmHg 89%
18:00 -2°C° 0 mm 4 m/s 760 mmHg 87%
19:00 -1°C° 0 mm 3 m/s 761 mmHg 85%
20:00 -1°C° 0 mm 3 m/s 761 mmHg 84%
21:00 -1°C° 0 mm 3 m/s 761 mmHg 83%
22:00 -2°C° 0 mm 3 m/s 761 mmHg 83%
23:00 -2°C° 0 mm 3 m/s 761 mmHg 82%

Poimâine, 5 Martie, Vineri

Timp Temperatura Precipitaţii Vânt Presiune Umiditate
00:00 -2°C° 0 mm 3 m/s 762 mmHg 82%
01:00 -2°C° 0 mm 2 m/s 762 mmHg 82%
02:00 -2°C° 0 mm 2 m/s 762 mmHg 81%
03:00 -2°C° 0 mm 2 m/s 762 mmHg 80%
04:00 -2°C° 0 mm 2 m/s 762 mmHg 80%
05:00 -2°C° 0 mm 2 m/s 762 mmHg 78%
06:00 -2°C° 0 mm 2 m/s 763 mmHg 76%
07:00 -2°C° 0 mm 2 m/s 763 mmHg 74%
08:00 -1°C° 0 mm 2 m/s 763 mmHg 67%
09:00 +2°C° 0 mm 2 m/s 764 mmHg 60%
10:00 +3°C° 0 mm 2 m/s 764 mmHg 53%
11:00 +2°C° 0.1 mm 3 m/s 764 mmHg 52%
12:00 +1°C° 0.1 mm 4 m/s 764 mmHg 50%
13:00 +1°C° 0.1 mm 5 m/s 765 mmHg 49%
14:00 +1°C° 0.1 mm 4 m/s 765 mmHg 53%
15:00 0°C° 0.1 mm 4 m/s 765 mmHg 57%
16:00 0°C° 0.1 mm 4 m/s 765 mmHg 61%
17:00 -1°C° 0 mm 4 m/s 766 mmHg 66%
18:00 -1°C° 0 mm 3 m/s 766 mmHg 71%
19:00 -2°C° 0 mm 3 m/s 767 mmHg 76%
20:00 -2°C° 0 mm 3 m/s 768 mmHg 76%
21:00 -2°C° 0 mm 3 m/s 768 mmHg 76%
22:00 -4°C° 0 mm 3 m/s 769 mmHg 75%
23:00 -3°C° 0 mm 2 m/s 769 mmHg 74%

6 Martie, Sâmbătă

Timp Temperatura Precipitaţii Vânt Presiune Umiditate
00:00 -3°C° 0 mm 2 m/s 770 mmHg 73%
01:00 -3°C° 0 mm 2 m/s 770 mmHg 72%
02:00 -3°C° 0 mm 2 m/s 770 mmHg 72%
03:00 -3°C° 0 mm 2 m/s 770 mmHg 71%
04:00 -3°C° 0 mm 2 m/s 770 mmHg 70%
05:00 -3°C° 0 mm 2 m/s 770 mmHg 72%
06:00 -3°C° 0 mm 2 m/s 771 mmHg 73%
07:00 -3°C° 0 mm 2 m/s 771 mmHg 74%
08:00 -2°C° 0 mm 3 m/s 771 mmHg 66%
09:00 -1°C° 0 mm 4 m/s 771 mmHg 59%
10:00 0°C° 0 mm 4 m/s 771 mmHg 52%
11:00 +1°C° 0 mm 5 m/s 770 mmHg 49%
12:00 +1°C° 0 mm 5 m/s 770 mmHg 46%
13:00 +2°C° 0 mm 5 m/s 770 mmHg 42%
14:00 +2°C° 0 mm 5 m/s 769 mmHg 45%
15:00 +1°C° 0 mm 5 m/s 769 mmHg 48%
16:00 +1°C° 0 mm 5 m/s 768 mmHg 51%
17:00 -1°C° 0 mm 6 m/s 767 mmHg 57%
18:00 -2°C° 0 mm 6 m/s 767 mmHg 62%
19:00 -3°C° 0 mm 7 m/s 766 mmHg 68%
20:00 -2°C° 0.1 mm 7 m/s 766 mmHg 75%
21:00 -2°C° 0.1 mm 7 m/s 765 mmHg 82%
22:00 -2°C° 0.1 mm 8 m/s 765 mmHg 89%
23:00 -2°C° 0 mm 8 m/s 764 mmHg 87%

7 Martie, Duminică

Timp Temperatura Precipitaţii Vânt Presiune Umiditate
00:00 -2°C° 0 mm 8 m/s 764 mmHg 85%
01:00 -1°C° 0 mm 8 m/s 763 mmHg 83%
02:00 -1°C° 0 mm 8 m/s 762 mmHg 83%
03:00 -1°C° 0 mm 8 m/s 762 mmHg 82%
04:00 -1°C° 0 mm 8 m/s 761 mmHg 81%
05:00 -1°C° 0.1 mm 8 m/s 761 mmHg 85%
06:00 -2°C° 0.1 mm 8 m/s 760 mmHg 90%
07:00 -2°C° 0.1 mm 8 m/s 760 mmHg 94%
08:00 -1°C° 0.1 mm 8 m/s 760 mmHg 94%
09:00 -1°C° 0.1 mm 8 m/s 760 mmHg 93%
10:00 -1°C° 0.1 mm 8 m/s 760 mmHg 93%
11:00 -1°C° 0.1 mm 9 m/s 760 mmHg 92%
12:00 -1°C° 0.1 mm 9 m/s 759 mmHg 91%
13:00 -1°C° 0.1 mm 9 m/s 759 mmHg 91%
14:00 -1°C° 0.8 mm 8 m/s 759 mmHg 92%
15:00 -2°C° 0.8 mm 7 m/s 759 mmHg 94%
16:00 -3°C° 0.8 mm 6 m/s 759 mmHg 96%
17:00 -2°C° 0.7 mm 5 m/s 759 mmHg 90%
18:00 -2°C° 0.7 mm 4 m/s 760 mmHg 83%
19:00 -2°C° 0.7 mm 3 m/s 760 mmHg 76%
20:00 -2°C° 0 mm 3 m/s 761 mmHg 76%
21:00 -4°C° 0 mm 3 m/s 761 mmHg 75%
22:00 -5°C° 0 mm 3 m/s 762 mmHg 74%
23:00 -5°C° 0 mm 3 m/s 762 mmHg 75%

8 Martie, Luni

Timp Temperatura Precipitaţii Vânt Presiune Umiditate
00:00 -5°C° 0 mm 3 m/s 763 mmHg 76%
01:00 -5°C° 0 mm 3 m/s 763 mmHg 76%
02:00 -5°C° 0 mm 4 m/s 763 mmHg 78%
03:00 -5°C° 0 mm 4 m/s 763 mmHg 79%
04:00 -5°C° 0 mm 4 m/s 764 mmHg 80%
05:00 -5°C° 0 mm 4 m/s 764 mmHg 80%
06:00 -5°C° 0 mm 4 m/s 765 mmHg 80%
07:00 -5°C° 0 mm 4 m/s 765 mmHg 81%
08:00 -5°C° 0.1 mm 5 m/s 766 mmHg 78%
09:00 -4°C° 0.1 mm 5 m/s 767 mmHg 75%
10:00 -3°C° 0.1 mm 6 m/s 767 mmHg 72%
11:00 -3°C° 0 mm 6 m/s 768 mmHg 68%
12:00 -3°C° 0 mm 6 m/s 768 mmHg 65%
13:00 -1°C° 0 mm 5 m/s 768 mmHg 62%
14:00 -2°C° 0 mm 5 m/s 768 mmHg 64%
15:00 -2°C° 0 mm 5 m/s 769 mmHg 66%
16:00 -2°C° 0 mm 4 m/s 769 mmHg 68%
17:00 -2°C° 0 mm 3 m/s 769 mmHg 73%
18:00 -3°C° 0 mm 2 m/s 769 mmHg 77%
19:00 -2°C° 0 mm 1 m/s 769 mmHg 81%
20:00 -2°C° 0 mm 1 m/s 770 mmHg 81%
21:00 -1°C° 0 mm 1 m/s 770 mmHg 80%
22:00 -1°C° 0 mm 1 m/s 770 mmHg 80%
23:00 -2°C° 0 mm 1 m/s 770 mmHg 81%
Arată mai mult

Formular de consimțământ

Meteoprog și furnizorii noștri de servicii pot stoca și accesa date personale, precum cookies, identificatori de dispozitiv sau alte tehnologii similare pe dispozitivul dumneavoastră și procesa astfel de date pentru a personaliza conținutul și reclamele, dar și pentru a oferi caracteristici de social media și pentru a analiza traficul.

  • Stocarea și/sau accesarea informațiilor pe dispozitivul dumneavoastră

    Cookies, identificatori de dispozitiv sau alte informații pot fi stocate sau accesate pe dispozitiv în scopurile indicate mai sus.

  • Reclame și conținut personalizat, evaluarea reclamelor și a conținutului, informații despre audiențe și dezvoltarea produselor

    Reclamele și conținutul pot fi personalizate pe baza unui profil. Pot fi adăugate date suplimentare pentru a personaliza mai bine reclamele și conținutul. Performanța reclamelor și conținutului poate fi măsurată. Pot fi obținute informații despre utilizatorii care au văzut reclamele și conținutul. Aceste date pot fi utilizate pentru a dezvolta sau îmbunătăți experiența utilizatorilor, sistemele și software-ul.

Dând clic pe ‘Sunt de acord’, permiteți utilizarea cookie-urilor menționate, a identificatorilor de dispozitiv, balizelor web sau altor tehnologii similare. Setările pot fi modificate din browser-ul dispozitivului dumneavoastră.

În anumite scopuri, interesele legitime pot prima asupra consimțământului. Puteți citi mai multe informații în acest sens în Politica privind Confidențialitatea Datelor și Cookie.